Theta_e
301 301 302 301 301 300 300 300 299 299 299 298 298 298 299 299 299 299 299 299 299 299 299 299 299 298 298 298 298 298 297 297 296 295 295 295 294 294 293 293 292 292 291 291 292 292 292 292 293 292 292 291 291 292 293 295 297 298 298 298 299 298 298 298 298 298 298 298 297 297 297 296 296 295 294 294 293 292 291 291 292 294 296 297 297 298
300 300 300 300 300 300 300 299 299 299 299 298 298 298 298 298 298 299 299 298 298 298 298 298 298 298 298 298 298 298 297 297 296 295 295 295 294 294 293 292 292 291 291 292 292 292 292 293 293 293 292 291 291 291 293 295 297 298 299 298 298 298 298 298 298 297 297 296 296 296 295 295 294 293 293 292 292 291 291 292 294 296 296 297 297 297
299 299 299 299 299 299 299 299 299 299 299 299 298 298 298 298 298 298 298 298 298 297 297 297 297 297 297 297 297 297 297 297 296 295 295 295 294 294 293 292 292 291 291 292 292 292 293 293 293 293 292 292 291 290 291 293 295 296 297 297 297 297 297 297 296 296 295 295 294 293 293 292 292 291 291 291 291 291 292 293 295 296 296 297 297 297
298 298 298 298 298 299 299 299 298 298 298 298 298 298 298 298 298 298 298 297 297 297 296 296 296 296 296 296 297 297 297 296 296 295 295 294 294 293 293 292 291 291 291 292 292 292 293 293 293 293 293 292 291 290 290 291 292 293 295 295 295 295 295 295 294 293 293 292 292 291 290 290 290 290 291 291 291 292 293 293 294 295 296 296 297 297
298 298 298 298 298 298 298 299 298 298 298 298 298 298 298 298 298 298 297 297 296 296 296 296 295 295 296 296 296 296 297 296 296 295 295 294 294 293 292 291 291 291 291 292 292 292 293 293 294 293 293 293 292 291 290 290 290 291 292 292 293 293 293 292 292 292 291 291 290 290 290 290 290 291 291 291 292 292 292 293 294 295 296 296 296 297
297 298 298 298 298 297 298 298 298 298 297 297 297 298 297 298 298 298 297 296 296 296 296 295 295 295 295 295 296 296 296 296 295 295 294 294 293 293 292 291 291 291 291 291 292 293 293 294 294 294 293 293 292 291 291 290 290 290 290 291 291 291 291 291 291 291 291 290 290 290 290 291 291 291 292 292 291 292 292 293 294 294 295 296 296 296
296 296 297 297 297 297 297 297 297 298 297 297 297 297 297 297 297 297 297 297 296 296 295 295 295 295 295 295 295 295 295 295 295 294 294 294 293 292 292 291 291 291 291 291 292 293 294 294 294 294 294 293 293 292 291 291 290 290 290 291 291 291 291 291 291 291 291 291 290 291 291 291 292 292 292 291 291 292 292 293 294 294 294 295 296 296
295 295 295 296 296 296 297 297 297 297 297 297 297 296 296 296 296 296 296 296 296 296 295 295 295 295 295 295 294 294 294 294 294 294 294 293 293 292 291 291 291 291 291 291 292 293 294 294 295 294 294 294 293 292 292 291 291 290 291 291 291 292 292 292 291 291 291 291 291 291 292 292 292 292 292 291 291 292 292 293 293 294 294 295 295 295
295 294 294 295 295 295 296 296 297 297 297 297 296 296 295 295 295 295 295 295 295 295 295 295 295 294 294 294 294 294 293 293 293 293 293 293 293 292 291 291 291 291 291 291 292 293 294 295 295 295 294 294 293 293 292 291 291 291 291 291 292 292 292 292 292 292 291 291 291 291 292 292 292 292 292 291 291 292 292 293 293 293 293 294 294 295
296 295 294 294 295 295 295 296 296 296 297 297 296 296 295 295 294 294 294 294 294 294 294 294 294 294 294 294 293 293 293 293 293 293 293 293 292 292 291 291 291 291 291 291 292 293 294 295 295 295 294 294 294 293 292 292 291 291 291 291 292 292 292 292 291 291 291 291 291 291 292 292 292 292 291 291 292 292 292 292 293 293 293 293 293 294
295 295 295 294 294 294 295 295 295 296 296 296 296 295 295 295 294 294 293 293 293 293 293 293 293 293 293 293 293 293 293 292 292 292 292 292 292 291 291 291 291 291 291 291 291 292 294 295 295 295 295 294 294 293 293 292 292 291 291 291 291 291 291 291 291 291 290 290 291 291 291 291 291 291 291 291 292 292 292 292 292 292 292 292 293 293
295 294 294 294 294 294 294 294 294 295 295 295 295 294 294 294 294 294 293 293 293 293 293 293 293 293 293 293 293 292 292 292 292 292 292 292 291 291 291 291 291 291 290 290 291 292 293 294 295 295 295 294 294 293 293 292 292 291 291 291 291 291 291 291 291 290 290 290 290 291 291 291 291 291 291 291 292 292 292 292 292 292 292 292 292 293
295 295 294 294 294 293 293 293 293 294 294 294 294 294 293 293 293 294 294 293 293 293 293 293 293 293 293 293 293 292 292 292 292 292 292 291 291 291 291 291 291 291 291 290 291 291 292 294 294 295 294 294 294 293 293 292 292 291 291 291 291 291 291 291 290 290 290 290 290 290 290 290 290 290 291 291 292 292 292 292 292 292 292 292 292 292
295 295 294 294 293 293 293 293 293 293 293 293 294 294 294 294 293 293 293 293 293 293 293 293 293 293 293 293 292 292 292 292 292 292 292 291 291 291 291 291 291 291 291 291 291 291 292 293 294 294 294 294 293 293 292 292 292 291 291 291 291 291 290 290 290 290 290 290 290 290 290 290 290 290 291 291 292 292 292 292 292 291 292 292 292 292
295 295 294 293 293 293 293 293 292 292 292 293 293 293 293 293 293 293 293 293 293 293 293 293 293 293 293 293 292 292 292 292 292 292 291 291 291 291 291 291 291 291 291 291 291 291 292 293 293 293 293 293 293 292 292 292 291 291 291 291 291 290 290 290 290 290 290 290 290 290 290 290 290 291 291 292 292 292 292 291 291 291 292 291 291 291
296 295 294 293 293 293 293 293 292 292 292 292 292 293 293 293 293 293 293 293 293 293 293 292 292 292 292 293 292 292 292 292 292 292 292 291 291 291 291 291 291 291 291 291 291 292 292 292 292 293 292 292 292 292 292 291 291 291 291 291 291 291 290 290 290 290 290 290 290 290 290 290 290 291 291 291 292 291 291 291 291 291 291 291 291 291
296 295 295 294 294 293 293 293 293 292 292 292 292 292 292 292 293 293 293 293 293 293 293 292 292 291 291 292 292 292 292 292 292 292 292 291 291 291 291 291 291 291 291 292 291 291 292 292 292 292 292 292 291 291 291 291 291 291 291 291 291 291 291 291 291 291 290 290 290 290 290 290 291 291 291 291 291 291 291 291 291 291 291 291 290 290
295 295 295 294 294 294 293 293 293 293 292 292 292 292 292 292 292 292 293 293 293 293 293 292 292 292 291 292 292 292 292 292 292 292 291 291 291 291 291 291 291 291 291 292 291 291 291 291 291 291 291 291 291 291 291 291 291 291 291 291 291 291 291 291 291 291 290 290 290 289 290 290 291 291 291 291 291 291 291 291 291 291 291 290 290 290
295 295 295 294 294 294 293 293 293 293 292 292 292 291 292 292 292 292 292 292 292 292 292 292 292 292 292 292 292 292 292 292 292 292 291 291 291 291 291 291 291 291 291 291 291 291 291 291 291 291 291 291 291 291 291 291 291 291 291 291 291 291 291 291 291 290 290 289 289 289 290 290 291 291 291 290 290 290 291 291 291 290 290 290 290 290
295 295 295 295 294 294 293 293 293 293 293 292 292 292 291 291 292 292 292 292 292 292 292 292 292 292 292 292 293 292 292 292 292 291 291 291 291 291 291 291 291 291 291 291 291 291 291 291 291 291 291 291 291 291 291 291 291 291 291 291 291 291 291 291 290 290 289 289 289 289 290 290 290 290 290 290 290 290 290 290 290 290 290 290 290 289
295 295 295 295 294 294 293 293 293 293 293 293 292 292 292 291 292 292 292 292 292 292 292 292 292 292 292 292 292 293 292 292 292 291 291 291 291 291 291 291 291 291 291 291 291 291 291 291 291 291 291 291 291 291 291 291 291 291 291 291 291 291 291 290 290 289 289 289 289 289 290 290 290 290 290 290 290 290 290 290 290 290 290 290 289 289
295 295 295 295 294 294 294 293 293 293 293 293 292 292 292 291 291 292 292 292 292 292 292 292 292 292 292 292 292 293 293 293 292 291 291 290 290 291 291 291 291 291 291 291 291 291 291 291 291 291 291 291 291 291 291 291 291 291 291 291 291 291 290 290 289 289 289 289 289 290 290 290 290 290 290 290 290 290 290 290 290 290 289 289 289 289
296 295 295 295 294 294 294 294 293 293 293 293 293 292 292 292 292 292 292 292 292 292 292 292 292 292 292 292 292 293 293 293 293 292 291 290 290 291 291 291 291 291 291 291 292 291 291 291 291 291 291 291 291 291 291 291 291 291 291 291 291 290 290 290 289 289 289 289 290 290 290 290 290 290 290 290 290 290 290 290 289 289 289 289 289 289
296 295 295 295 294 294 294 294 293 293 293 293 293 293 293 293 293 293 292 292 292 292 292 292 292 292 292 292 292 293 293 293 293 292 291 291 291 291 291 291 291 291 291 292 292 291 291 291 291 291 291 291 291 291 291 291 291 291 291 291 290 290 290 290 289 290 290 290 290 290 290 290 290 290 290 290 290 290 289 289 289 289 289 289 289 289
295 295 295 294 294 294 294 294 294 293 293 293 293 293 293 293 293 293 293 292 292 292 292 292 292 292 292 292 292 292 292 292 292 291 291 291 291 292 292 292 292 292 292 292 292 292 291 291 291 291 291 291 291 291 291 291 291 291 291 290 290 290 290 290 290 290 290 290 290 290 289 290 290 290 290 290 290 289 289 289 289 289 289 289 289 289
295 295 295 294 294 294 294 294 294 293 293 293 293 293 293 293 292 292 292 292 292 292 292 292 292 292 292 292 292 292 292 292 291 291 291 291 291 292 292 292 292 292 292 292 292 292 291 291 291 291 291 291 291 291 291 291 291 291 290 290 290 290 290 290 290 290 290 290 290 289 289 289 290 290 290 289 289 289 289 289 289 289 289 289 289 289
296 295 295 294 294 294 294 294 294 294 294 294 294 293 293 293 292 292 292 292 292 292 292 291 291 291 291 291 291 291 291 291 291 291 291 291 291 292 292 292 292 292 292 292 292 292 292 292 292 292 291 291 291 291 291 291 290 290 290 290 290 290 290 289 289 290 290 290 289 289 289 289 289 289 289 289 289 289 289 289 289 289 289 289 289 289
296 295 295 294 294 294 294 294 294 294 294 294 294 294 293 293 292 292 292 292 292 292 291 291 291 290 290 290 291 291 291 291 291 291 291 291 291 291 291 292 292 292 292 292 292 292 292 292 292 291 291 291 291 291 291 290 290 290 290 290 290 290 289 289 289 289 289 289 289 289 289 289 289 289 289 289 289 289 289 288 288 288 289 288 288 288
296 295 295 294 294 294 294 294 294 294 294 294 294 294 293 293 293 292 292 292 292 291 291 291 291 291 291 291 291 291 291 291 291 291 291 290 291 291 291 292 292 292 292 292 292 292 291 291 291 291 291 291 291 290 290 290 290 290 290 290 289 289 289 288 288 288 288 288 288 288 288 289 289 289 289 289 289 288 288 288 288 288 288 288 288 288
295 295 295 294 294 294 293 294 294 294 294 294 294 294 293 293 293 293 292 292 292 291 291 291 291 291 291 291 290 290 290 290 291 291 290 290 290 291 291 291 291 292 292 292 291 290 290 291 291 291 291 291 291 290 290 290 289 289 289 289 289 289 288 287 287 287 287 287 288 288 288 288 288 288 288 288 288 288 288 288 288 288 288 288 288 288
295 295 295 294 294 293 293 293 293 294 294 294 294 293 293 293 293 293 292 292 292 291 291 291 291 291 291 291 291 290 290 291 291 291 291 290 290 291 291 291 291 292 292 291 289 288 288 290 290 291 291 290 290 290 290 289 289 289 289 289 288 288 287 287 287 287 287 287 288 288 288 288 288 288 288 288 288 288 288 288 288 288 288 288 288 287
295 295 295 294 294 293 293 293 293 293 294 294 293 293 293 293 293 293 292 292 292 292 291 291 291 291 291 291 291 291 291 291 291 291 291 290 290 291 291 291 291 291 291 291 291 289 286 288 289 290 290 290 290 289 289 289 289 289 289 288 288 288 287 287 287 287 287 287 288 288 288 288 288 288 288 288 288 288 288 288 288 288 288 288 287 287
295 295 295 294 294 293 293 293 293 293 293 293 293 293 293 292 292 292 292 292 292 292 291 291 291 291 291 291 292 292 292 292 292 291 291 291 291 291 291 291 291 291 291 291 291 291 288 288 289 289 289 289 289 289 289 289 288 288 288 288 288 287 287 287 287 287 287 287 287 288 288 288 288 288 288 288 288 288 288 288 288 288 288 287 287 287
295 294 294 294 294 293 293 292 292 292 292 293 293 293 292 292 292 292 292 291 291 291 291 291 291 291 291 291 292 292 293 293 292 292 292 291 291 291 291 291 291 291 291 290 290 290 290 289 289 289 288 288 288 288 288 288 288 288 288 287 287 287 287 287 287 287 287 287 287 287 287 287 287 287 287 287 287 287 287 287 287 287 287 287 287 287
294 294 294 294 293 293 292 292 292 292 292 292 292 292 292 292 292 291 291 291 291 291 291 291 291 291 291 291 292 292 293 293 292 292 292 291 291 291 291 291 291 291 290 290 290 290 289 289 288 288 288 288 288 288 288 288 288 287 287 287 287 287 287 287 287 287 287 287 287 287 287 287 287 287 287 286 286 286 286 286 286 287 287 287 287 287
294 294 294 294 293 293 292 292 291 291 291 291 291 292 292 292 291 291 291 291 291 291 291 291 291 291 292 292 292 292 293 293 292 292 292 292 292 292 291 291 291 291 290 290 289 289 289 289 288 288 288 288 288 287 287 287 287 287 287 287 287 287 287 287 287 287 287 287 287 287 287 287 286 286 286 286 286 286 286 286 286 287 287 287 286 286
294 294 294 293 293 293 292 292 291 291 291 291 291 291 291 291 291 291 291 291 291 291 291 291 291 291 292 292 292 293 293 293 292 292 292 292 292 292 291 291 291 291 290 290 289 289 289 288 288 288 288 287 287 287 287 287 287 287 287 287 287 287 287 287 287 287 287 287 287 286 286 286 286 286 286 286 286 286 286 286 286 286 286 286 285 285
294 294 294 293 293 293 292 292 292 291 291 291 291 291 291 291 291 291 291 291 291 291 291 292 292 292 292 292 292 292 292 293 292 292 292 292 292 291 291 291 290 290 290 290 289 289 288 288 287 286 287 287 287 287 287 287 287 287 287 287 287 287 287 287 287 287 287 287 286 286 286 286 286 286 286 286 286 286 285 285 285 285 285 285 285 284
294 293 293 293 293 293 293 292 292 292 292 291 291 291 291 291 291 291 291 291 291 291 292 292 292 292 292 292 292 292 292 292 292 292 292 292 291 291 291 290 290 290 290 290 289 289 288 288 287 287 287 287 287 287 287 287 287 287 287 287 287 287 287 287 286 286 286 286 286 286 286 286 286 286 286 286 285 285 285 285 285 285 285 285 284 284
293 293 293 293 293 293 293 293 292 292 292 292 292 292 292 292 291 291 291 291 291 291 291 292 292 292 292 292 292 292 292 291 291 291 291 291 291 291 290 290 290 289 289 289 289 289 288 288 288 287 287 287 287 287 287 287 287 287 287 287 286 286 286 286 286 286 286 286 286 286 286 286 285 285 285 285 285 285 285 285 285 285 284 284 284 283
293 293 293 293 293 293 293 293 292 292 292 292 292 292 292 292 291 291 291 291 291 291 291 291 291 291 291 292 292 291 291 291 291 291 291 291 291 291 290 290 290 289 289 289 289 288 288 288 288 287 287 287 287 287 287 287 287 286 286 286 286 286 286 286 286 286 286 286 285 285 285 285 285 285 285 285 285 285 285 285 285 284 284 284 283 283
293 293 293 292 292 292 292 292 292 292 292 292 292 292 292 292 292 291 291 291 291 291 291 291 291 291 291 291 291 291 291 291 291 290 290 290 290 290 290 290 290 289 289 289 288 288 288 288 288 287 287 287 286 286 286 286 286 286 286 286 286 286 285 285 285 285 285 285 285 285 285 285 285 285 285 285 285 285 285 284 284 284 284 283 283 283
292 292 292 292 292 292 292 292 292 292 292 292 292 292 292 292 292 291 291 291 291 291 291 291 291 291 291 291 291 291 291 291 291 290 290 290 290 290 290 290 290 289 289 289 288 288 288 288 287 287 287 287 286 286 286 286 286 286 286 286 285 285 285 285 285 285 285 285 285 285 285 285 285 285 285 285 284 284 284 284 284 284 284 283 283 283
292 292 292 292 292 292 292 292 292 292 292 292 292 292 292 292 292 292 291 291 291 291 291 291 291 291 291 290 290 291 291 291 291 290 290 290 290 290 290 290 289 289 289 289 288 288 288 287 287 287 287 286 286 286 286 286 286 286 285 285 285 285 285 285 285 284 284 284 284 284 284 284 284 284 284 284 284 284 284 284 284 284 283 283 283 282
292 292 291 291 291 291 291 291 292 292 292 292 292 292 292 292 292 292 291 291 291 291 291 291 290 290 290 290 290 290 290 290 290 290 290 290 290 290 290 290 289 289 289 289 288 288 288 287 287 287 287 286 286 286 286 286 286 285 285 285 285 285 285 284 284 284 284 284 284 284 284 284 284 284 284 284 284 284 284 284 283 283 283 283 282 282
291 291 291 291 291 291 291 291 291 291 291 291 291 291 292 292 292 292 291 291 291 291 290 290 290 290 290 290 289 289 289 289 290 290 290 290 290 289 289 289 289 289 289 288 288 288 288 287 287 287 286 286 286 286 286 286 286 285 285 285 285 285 284 284 284 284 284 284 284 284 284 284 284 284 284 284 284 284 283 283 283 283 283 282 282 282
291 291 291 291 291 291 291 291 291 291 291 291 291 291 291 291 291 291 291 291 291 290 290 290 290 290 290 289 289 289 289 289 289 289 289 289 289 289 289 289 289 289 289 288 288 288 287 287 287 287 286 286 286 286 286 286 286 285 285 285 285 285 284 284 284 284 284 284 284 284 284 284 284 284 284 284 283 283 283 283 283 283 282 282 282 282
290 290 290 291 291 291 291 291 291 291 291 291 291 291 291 291 291 291 291 291 290 290 290 290 290 290 290 289 289 289 289 289 288 288 288 288 288 288 288 288 288 288 288 288 288 287 287 287 287 287 287 286 286 286 286 286 286 285 285 285 285 284 284 284 284 284 284 284 283 284 284 284 284 284 283 283 283 283 283 283 282 282 282 282 281 281
290 290 290 291 291 291 291 291 291 291 291 291 291 291 291 291 291 291 290 290 290 290 289 289 289 290 289 289 289 289 289 289 288 288 288 288 288 288 288 288 288 288 288 287 287 287 287 287 287 287 287 286 286 286 286 285 285 285 285 285 284 284 284 284 284 284 284 283 283 283 283 283 283 283 283 283 283 283 282 282 282 282 282 281 281 281
290 290 290 291 291 291 291 291 291 291 291 290 290 290 290 290 290 290 290 290 290 290 289 289 289 289 289 289 289 289 289 289 288 288 287 287 287 287 287 287 287 287 287 287 287 287 287 287 286 286 286 286 286 286 285 285 285 285 285 284 284 284 284 284 284 284 283 283 283 283 283 283 283 283 283 283 283 282 282 282 282 281 281 281 281 281
290 290 290 291 291 291 291 291 290 290 290 290 290 290 290 290 290 290 290 290 290 290 289 289 289 289 289 289 289 289 289 289 288 288 287 287 287 287 286 286 286 286 286 286 286 285 285 285 284 284 285 285 285 285 285 285 285 284 284 284 284 284 284 284 283 283 283 283 283 283 283 283 283 283 283 283 282 282 282 282 281 281 281 281 281 281
Wind_Speed
20 22 23 24 26 29 30 30 30 29 29 28 28 28 27 26 26 26 26 26 27 27 28 27 27 26 26 25 24 24 23 22 21 20 19 18 16 16 15 15 15 15 14 14 14 14 13 13 13 13 12 12 12 11 11 11 10 10 9 9 9 9 9 9 9 8 8 8 8 8 9 10 11 12 13 13 13 12 12 10 9 8 9 9 10 10
19 21 21 22 25 27 29 30 30 29 29 29 29 28 28 27 26 26 26 26 27 28 28 27 27 27 26 26 25 24 23 22 21 20 19 18 17 16 16 15 15 15 15 15 15 14 14 14 14 13 13 13 13 13 12 12 12 11 11 11 11 11 10 10 10 10 10 10 10 11 11 12 13 14 14 13 13 12 11 9 8 9 9 10 10 10
19 20 21 22 24 26 28 29 29 29 29 29 29 28 28 27 26 26 26 27 27 27 27 27 27 27 27 26 26 25 24 23 22 21 19 18 17 17 16 16 16 16 16 15 15 15 15 15 15 14 14 14 14 14 14 13 13 13 13 13 13 13 13 13 13 13 13 13 13 14 14 15 15 15 14 13 12 11 10 9 9 9 10 10 10 10
21 21 22 22 23 25 26 27 27 27 27 27 27 27 27 27 26 26 26 26 27 27 27 27 26 26 26 26 26 25 24 23 22 21 20 19 18 17 16 16 16 16 16 16 16 16 16 16 15 15 15 14 14 14 15 15 15 15 15 15 15 15 15 15 15 15 15 15 15 15 15 15 15 14 14 13 12 11 10 9 9 10 10 10 10 11
22 22 23 23 23 23 23 24 25 25 24 24 24 25 25 25 26 26 26 26 26 27 27 26 26 26 26 26 26 25 24 23 22 21 20 19 18 17 17 16 16 16 16 16 17 17 17 17 16 16 15 15 15 15 15 15 15 15 15 16 16 16 16 16 16 16 16 16 16 15 15 15 14 14 13 12 12 11 11 10 10 10 10 11 11 11
22 22 22 23 22 22 21 22 23 24 23 22 22 22 23 23 24 25 26 26 26 27 27 26 26 25 25 25 25 24 24 23 22 20 19 19 18 17 17 17 16 17 17 17 17 17 17 17 17 17 16 16 15 15 15 16 16 15 16 16 16 16 16 16 16 16 15 15 15 15 14 14 14 13 13 13 12 12 11 11 11 11 11 11 11 11
20 21 21 21 21 20 19 20 22 23 22 21 20 20 20 21 22 24 26 26 27 27 26 26 26 25 24 24 24 23 23 22 21 20 19 19 18 17 17 17 17 17 17 17 18 18 18 18 18 17 17 16 16 16 16 16 16 16 16 16 16 16 16 15 15 15 15 15 14 14 14 14 14 14 14 13 13 12 12 11 11 11 11 11 12 12
18 19 19 20 19 18 17 18 21 23 23 21 20 19 19 20 21 22 24 25 26 26 25 25 25 25 24 24 23 23 23 22 21 20 20 19 18 18 17 17 17 17 17 18 18 18 19 19 19 18 18 17 17 16 16 16 16 16 16 16 16 16 16 16 15 15 15 15 14 14 14 14 14 14 14 14 13 13 12 12 12 12 12 12 12 12
18 18 19 19 19 17 16 17 20 22 23 22 21 20 19 19 19 20 21 22 23 24 24 24 24 24 24 24 23 23 22 22 21 20 19 19 18 18 18 18 18 18 18 18 19 19 19 19 19 19 19 18 17 17 16 16 16 16 16 16 16 16 16 16 16 16 15 15 14 14 14 14 14 15 14 14 13 13 12 12 12 12 12 12 12 12
19 19 19 19 20 19 17 16 18 22 23 22 21 20 19 19 19 18 19 20 21 22 22 22 23 23 23 23 22 22 22 22 21 20 19 18 18 18 18 18 18 18 19 19 19 19 20 20 20 20 19 19 18 17 17 17 17 17 17 17 17 17 17 17 17 16 16 15 15 15 15 15 15 15 15 14 13 13 13 13 13 13 13 13 13 12
17 18 18 18 18 18 18 17 18 21 23 22 21 20 19 20 20 19 18 19 20 21 22 22 22 23 22 22 22 22 21 20 20 19 19 18 17 17 18 18 18 19 19 19 20 20 20 20 20 20 20 19 19 18 18 18 17 18 18 18 18 18 18 18 18 17 17 16 16 15 15 15 15 15 15 14 13 13 13 14 14 14 14 14 13 13
15 16 16 16 16 16 16 16 18 20 22 21 18 17 19 21 22 21 20 20 20 21 22 23 23 23 23 22 22 21 20 20 20 19 19 18 18 18 18 18 19 19 19 20 20 21 21 21 21 21 20 20 20 19 18 18 18 19 19 19 19 19 19 19 18 18 17 17 16 16 16 16 16 15 15 14 14 14 14 15 15 14 14 14 13 13
15 16 16 16 16 16 16 16 16 18 20 20 19 18 19 21 23 23 22 21 21 22 23 23 23 24 24 23 22 21 20 20 20 19 19 18 18 18 18 18 19 19 20 20 21 21 21 21 21 21 21 21 20 20 19 19 19 19 20 20 20 20 20 19 19 18 18 17 17 17 17 16 16 15 15 14 14 14 15 15 15 14 14 13 13 13
14 15 15 15 16 17 18 18 18 18 20 22 23 23 22 22 22 22 22 21 21 22 22 22 23 24 24 24 23 22 21 20 20 20 19 19 19 18 18 18 18 19 19 20 21 22 22 22 22 22 22 21 21 21 20 20 20 20 21 21 21 20 20 20 19 19 18 18 17 17 17 16 16 15 14 14 14 15 15 15 14 14 13 13 13 13
15 15 14 14 15 17 18 19 20 20 22 23 24 23 21 20 21 22 21 20 20 20 19 20 21 22 23 23 22 22 21 21 20 21 21 21 20 19 18 18 18 19 19 20 21 21 21 22 23 23 22 22 22 21 21 21 21 21 21 21 21 21 20 20 19 19 18 18 17 17 16 16 15 15 14 14 15 15 15 15 14 14 13 13 13 13
18 17 15 15 16 18 19 20 21 21 22 23 23 22 20 20 21 23 22 20 19 18 17 17 16 17 20 21 21 21 21 21 21 22 22 22 21 20 18 19 19 19 20 21 21 21 21 21 22 22 22 22 21 21 21 21 21 21 21 20 20 20 19 19 18 18 18 17 17 16 15 15 15 14 14 15 15 15 15 14 14 14 13 13 13 13
19 18 18 17 17 19 21 21 22 22 21 22 22 23 23 23 23 24 23 21 19 18 17 16 11 8 10 15 20 23 23 22 22 22 22 22 21 20 19 19 20 20 21 21 21 21 21 21 21 22 21 21 20 20 20 19 19 19 19 19 18 18 18 18 18 17 17 17 16 15 15 14 14 15 15 15 15 15 15 14 14 13 13 13 13 13
20 20 20 19 19 20 21 21 22 22 22 22 22 23 24 24 24 24 23 22 20 18 18 17 13 9 6 9 16 23 25 24 23 22 21 21 21 20 19 19 19 20 20 21 21 20 20 20 20 20 20 19 19 18 18 18 17 17 17 17 17 17 17 17 17 17 17 16 15 15 14 14 15 15 15 15 15 14 14 14 14 13 13 13 13 13
22 23 22 22 21 21 21 22 23 23 23 23 23 23 24 23 23 23 24 23 22 21 19 17 17 15 12 10 14 21 25 25 24 22 20 20 20 20 19 19 19 20 20 20 20 19 19 19 19 19 18 18 18 17 17 17 16 16 16 16 16 17 17 17 17 17 16 16 15 15 15 15 15 15 15 15 14 14 14 14 14 14 13 13 13 13
24 25 25 24 23 22 22 23 24 25 25 24 24 24 23 23 23 23 24 24 24 23 22 20 19 18 17 14 13 16 21 23 24 23 21 20 19 19 19 20 20 20 20 20 20 19 18 18 18 18 18 18 17 17 16 16 16 16 16 16 16 17 17 17 17 17 16 15 15 15 15 15 15 15 15 14 14 14 14 14 14 14 13 13 13 13
25 26 27 26 24 22 22 24 26 27 26 25 24 24 24 24 23 23 24 24 24 24 23 21 21 21 19 15 13 14 17 21 24 24 21 19 18 18 19 20 20 20 21 21 20 19 18 18 18 18 18 18 17 17 16 16 17 17 17 17 17 17 17 17 17 16 16 15 15 15 15 15 15 14 14 14 14 14 14 14 14 14 13 13 14 14
25 26 27 26 25 24 23 25 26 26 26 26 26 25 24 24 24 24 25 25 25 24 23 23 22 22 20 17 15 14 16 19 23 24 19 17 17 18 19 20 20 20 21 21 20 19 19 19 19 19 18 18 18 17 17 17 17 17 17 17 17 17 17 16 16 16 15 15 15 15 15 15 14 14 14 14 14 14 14 14 14 14 14 14 14 15
27 26 25 25 26 26 25 25 25 26 26 27 28 28 27 27 27 27 27 27 27 26 25 24 21 19 17 17 16 15 15 17 20 21 19 14 15 18 19 20 20 21 22 21 20 19 18 19 19 19 18 18 18 17 17 17 17 17 17 16 16 16 15 15 15 15 15 15 15 15 15 14 14 14 14 14 14 14 14 14 14 14 14 15 15 16
28 26 24 24 25 26 26 25 24 25 26 27 28 28 28 27 27 27 27 28 27 26 24 21 17 15 14 15 16 16 16 17 19 20 19 16 15 16 18 20 21 22 22 20 18 17 17 17 17 18 17 18 17 17 17 17 17 16 15 15 15 14 14 14 14 14 14 14 14 15 14 14 14 14 14 14 13 13 13 14 14 14 15 15 16 17
27 25 24 23 23 24 25 25 24 24 25 26 27 27 26 25 24 23 23 23 23 22 20 17 15 14 14 15 16 16 17 18 20 21 19 17 16 16 17 19 20 21 21 18 16 15 15 16 16 16 17 17 17 17 17 16 16 15 14 14 13 13 13 13 14 14 14 14 14 14 14 13 13 13 13 13 13 13 13 14 14 15 16 16 17 17
26 24 23 22 21 22 23 24 24 24 24 25 26 26 26 25 23 21 20 21 21 20 19 17 16 16 16 16 16 18 19 20 21 22 20 17 15 14 15 17 19 20 19 17 15 14 15 15 16 16 16 17 16 16 16 15 14 14 13 13 13 13 13 13 13 14 14 14 14 14 13 13 13 13 13 13 13 13 14 14 15 16 16 17 17 17
25 24 22 21 20 20 21 22 23 23 24 24 26 27 27 25 23 22 21 22 22 22 21 16 14 14 16 15 16 18 20 21 23 23 22 18 14 13 15 16 17 18 17 15 14 14 15 15 15 15 15 15 15 15 15 14 13 13 13 12 13 13 13 13 13 13 13 13 13 13 13 12 12 12 12 13 13 14 14 15 15 16 16 17 17 17
26 24 23 22 21 20 20 21 22 23 23 25 26 27 28 27 25 24 23 24 25 24 22 18 13 11 13 14 16 18 20 22 24 24 23 19 14 13 15 16 17 17 16 14 14 14 14 14 14 14 14 14 14 14 14 13 13 12 12 12 13 13 13 13 13 13 13 13 12 12 12 12 12 12 12 13 13 14 15 15 16 16 16 16 17 18
26 25 24 23 22 20 20 20 22 23 23 25 26 28 29 29 28 27 26 26 25 24 22 20 17 15 14 15 16 17 19 22 24 25 24 19 15 14 16 16 17 17 16 14 12 13 13 14 14 15 14 14 14 14 13 13 12 12 13 13 13 13 13 12 12 12 12 12 12 12 12 12 12 12 13 13 14 14 15 15 15 16 16 16 17 18
27 26 24 23 22 21 20 20 21 22 23 24 26 28 29 30 29 28 27 26 26 25 22 21 20 18 15 13 12 12 15 21 25 26 25 21 17 15 17 17 18 18 17 13 9 7 9 12 15 16 16 15 15 14 13 13 13 13 14 14 13 13 12 11 11 11 11 11 11 12 12 12 13 13 13 14 14 14 15 15 15 15 16 16 17 18
27 27 26 25 23 22 21 21 21 22 23 24 26 27 28 29 28 27 26 27 27 26 24 21 20 19 17 12 7 5 8 19 25 26 26 23 19 18 18 18 18 19 18 15 8 2 3 7 12 15 16 16 15 14 14 13 13 14 14 14 14 13 12 11 10 10 10 11 11 12 12 12 13 13 13 13 14 14 14 14 14 15 16 17 18 19
27 27 27 26 24 23 22 22 22 22 23 24 25 26 27 28 27 27 26 27 27 27 25 23 22 21 21 17 11 7 9 18 24 27 27 23 20 19 20 20 19 19 19 18 12 5 2 2 6 10 13 14 14 14 14 14 14 14 14 14 14 13 12 11 10 10 10 11 11 12 12 12 12 12 13 13 13 13 14 14 14 15 16 17 18 19
26 26 27 26 25 24 23 23 23 24 24 24 25 26 26 27 27 26 26 26 27 27 26 24 22 22 22 22 19 16 14 17 22 26 27 24 20 18 20 20 20 19 19 18 15 9 4 3 4 6 9 12 13 13 14 14 14 14 14 14 13 13 12 11 11 11 11 11 11 11 11 12 12 12 12 12 13 13 14 14 14 14 14 15 17 18
25 25 26 26 25 25 25 24 25 25 26 25 25 25 25 26 26 26 26 26 26 26 26 25 24 23 22 21 20 18 16 16 20 24 26 25 21 18 20 21 20 19 19 17 15 11 6 5 4 5 6 10 12 13 13 13 13 13 13 13 13 13 12 12 11 11 11 11 12 12 12 13 13 13 13 14 14 15 15 14 14 14 13 14 15 16
24 25 25 26 26 25 25 25 26 26 27 26 26 26 25 25 26 26 26 25 25 25 26 25 25 24 24 22 20 18 16 16 19 22 25 25 22 19 20 21 21 21 19 17 15 12 8 7 7 6 5 7 9 11 12 12 12 12 12 12 13 13 12 12 12 12 12 12 13 13 14 14 15 15 15 15 16 15 15 14 14 13 13 13 14 14
23 24 25 25 25 25 25 25 25 26 27 27 27 27 26 26 26 26 26 26 25 25 24 24 24 24 24 23 22 20 18 17 19 21 24 24 23 20 19 20 22 22 20 18 16 14 11 9 9 9 7 7 8 9 10 11 11 11 12 12 12 12 12 12 12 12 12 13 14 14 15 15 15 15 15 15 15 15 14 14 14 13 13 13 13 14
23 23 24 25 25 24 24 24 24 25 26 26 26 27 26 26 26 26 26 26 25 24 23 22 22 21 21 21 21 20 19 18 19 20 22 23 22 20 19 19 21 22 20 19 17 15 13 11 10 9 9 9 8 8 8 10 10 11 11 11 12 12 12 11 11 12 13 13 14 14 15 15 15 15 15 15 15 15 15 15 15 15 15 15 15 15
22 23 24 24 25 24 24 23 23 24 24 25 25 25 25 26 26 26 26 26 25 24 22 22 21 19 18 17 17 17 17 17 18 19 21 21 21 20 18 18 19 20 19 19 18 17 15 12 9 7 8 10 10 10 9 9 10 11 11 11 11 11 11 11 11 12 12 13 13 14 14 15 15 15 15 15 15 16 17 17 17 18 18 18 18 18
22 22 23 24 24 24 24 23 23 23 23 23 23 23 23 24 25 25 25 26 25 24 22 21 20 19 17 16 15 14 15 16 17 18 19 20 20 19 18 17 17 17 17 17 16 16 16 14 12 10 8 8 9 10 10 10 10 11 11 11 11 11 11 11 11 11 12 13 13 14 14 15 15 16 16 16 17 17 18 18 19 19 19 19 20 20
22 22 22 23 24 24 24 23 23 23 22 22 22 22 22 22 23 24 25 25 25 24 22 21 20 19 17 16 15 14 14 14 15 16 18 19 19 19 18 17 17 16 16 15 15 15 15 15 14 13 12 9 8 9 10 11 11 11 11 10 11 11 12 12 12 12 13 14 14 15 16 16 17 17 17 17 17 18 18 18 19 19 19 19 19 20
22 22 22 22 23 23 23 23 22 21 21 21 22 22 22 22 23 23 23 24 24 23 22 22 21 20 18 17 16 15 14 14 14 15 16 17 18 18 17 17 16 15 15 15 14 15 15 14 14 13 13 11 10 10 10 11 12 12 11 11 11 12 12 13 13 14 14 15 15 16 16 16 17 17 17 17 17 17 17 18 18 19 19 19 19 19
22 22 22 21 22 22 22 21 21 21 21 22 23 23 23 24 23 23 23 23 23 24 23 23 22 20 19 18 18 17 16 15 15 15 16 16 17 17 16 16 16 15 15 14 15 15 15 15 15 14 13 13 12 11 12 13 13 13 12 12 12 12 13 13 14 14 14 14 14 15 15 15 16 16 16 16 16 16 17 17 18 19 19 19 20 20
22 21 21 21 21 22 22 21 21 21 22 23 23 24 24 24 25 24 23 23 23 24 24 24 23 21 19 18 18 18 17 17 16 16 16 16 16 17 17 16 16 16 16 15 15 16 16 16 16 15 15 14 14 14 14 14 14 14 14 13 12 11 10 11 12 12 12 13 13 13 14 14 15 15 15 16 16 16 17 18 19 19 20 20 20 20
21 20 20 20 21 21 21 21 22 22 22 23 23 23 23 24 24 24 23 23 23 24 24 24 22 20 19 18 18 18 19 19 18 17 17 17 17 17 17 17 17 17 17 17 17 16 16 16 16 16 16 15 15 15 15 15 14 14 14 14 14 13 13 13 13 13 13 13 14 14 14 14 15 15 16 16 17 18 18 19 20 20 20 21 21 21
20 19 19 20 21 21 22 22 22 22 22 22 22 22 23 24 24 24 23 22 22 23 23 24 22 19 17 18 18 18 18 19 19 19 18 18 18 18 18 18 18 18 18 18 18 17 16 16 16 16 16 16 16 17 16 16 15 15 14 14 15 16 17 16 16 16 16 16 15 15 15 15 15 16 17 17 18 18 19 19 20 20 21 21 21 21
20 19 20 20 21 22 22 23 23 22 22 22 22 22 23 24 25 24 24 23 22 22 23 23 22 19 17 17 17 17 17 18 18 19 19 19 19 18 19 19 19 19 19 18 18 17 17 16 16 15 15 16 17 17 18 17 16 15 15 15 15 16 17 17 17 17 17 16 16 15 15 15 15 16 17 17 18 18 19 19 20 20 21 21 22 22
21 21 21 21 21 21 22 22 22 22 21 21 21 22 24 25 25 24 23 23 23 22 22 23 22 20 18 17 17 17 16 16 17 18 18 19 19 19 19 19 19 20 19 19 18 17 16 16 16 16 16 16 16 16 17 17 16 16 16 15 15 16 16 17 17 16 16 15 15 15 14 14 15 15 16 17 17 18 19 19 20 20 21 21 22 22
22 22 22 21 21 21 21 22 22 21 21 21 21 22 23 25 25 24 23 23 23 22 22 21 20 19 18 17 18 18 17 17 17 17 17 18 18 19 19 19 19 19 19 19 18 17 17 17 16 17 17 17 16 15 15 16 16 16 16 15 15 16 16 17 16 16 15 14 14 14 14 14 14 15 16 17 17 18 19 19 20 21 21 21 22 22
22 22 22 21 21 21 21 22 22 21 21 21 20 21 23 25 26 25 23 23 23 22 21 20 20 18 17 17 17 17 17 17 17 17 17 18 18 19 19 19 19 18 17 17 17 17 17 18 18 18 18 18 17 16 15 16 16 16 16 16 16 16 16 16 16 15 14 14 14 14 14 14 14 15 15 16 17 18 19 20 21 22 22 21 21 21
22 23 23 22 21 21 21 21 21 21 21 20 20 20 21 23 24 24 24 23 22 22 21 21 20 18 17 16 16 17 17 16 16 16 17 18 19 20 19 18 18 17 15 15 15 15 15 15 17 19 20 20 19 18 17 17 17 17 17 17 17 17 16 16 16 15 14 14 13 13 13 14 14 14 14 15 16 17 19 20 21 21 21 21 20 21
22 22 22 21 21 21 21 21 21 21 21 21 20 20 21 22 22 23 23 22 22 21 20 20 19 18 17 17 17 17 17 17 16 16 17 18 19 20 19 19 18 17 14 12 11 11 10 9 10 13 17 19 20 20 20 19 19 18 17 18 18 17 16 16 15 14 13 13 13 13 13 13 13 14 14 14 14 16 17 19 20 21 21 21 20 21
Wind_Direction
204 209 211 213 210 208 208 209 208 207 208 211 213 215 216 216 217 218 219 219 222 224 226 226 225 225 225 225 226 228 229 231 233 234 235 237 239 242 246 248 250 250 249 246 243 240 238 235 232 229 227 225 224 224 225 225 226 226 227 230 232 235 237 240 243 246 249 253 256 258 259 259 260 262 267 273 279 285 290 293 296 297 295 295 295 297
199 203 205 206 207 206 206 208 208 207 208 210 212 214 215 215 215 216 216 218 221 224 226 228 228 227 227 228 228 229 230 232 234 235 236 237 239 242 244 247 248 248 246 244 242 240 239 237 234 231 229 227 225 224 223 223 224 224 224 225 227 230 233 235 238 240 243 246 248 251 253 256 259 264 270 276 281 284 286 288 289 290 290 292 293 294
193 195 199 202 204 204 204 205 206 208 209 211 213 215 215 214 214 214 214 216 219 223 226 228 229 229 230 230 231 231 232 233 235 236 237 238 239 241 243 245 246 245 244 242 240 239 239 238 236 233 231 230 228 226 225 224 223 223 222 223 224 227 230 233 236 239 243 246 250 253 256 260 264 268 272 276 280 281 281 280 282 285 287 288 290 291
191 191 195 198 201 204 205 204 204 206 209 212 215 217 217 215 214 214 214 215 217 221 224 226 229 230 231 232 233 233 233 234 235 236 237 238 239 241 242 244 245 244 242 240 239 238 238 238 237 235 234 233 232 230 229 228 227 226 227 227 229 231 234 238 242 245 249 253 256 259 262 265 268 270 273 276 278 278 277 275 276 279 283 285 287 289
193 194 195 195 197 201 205 204 203 202 206 211 215 217 218 217 216 215 214 215 217 219 222 224 226 229 231 233 234 235 235 235 236 236 237 237 238 240 242 243 243 242 240 238 237 237 237 238 238 237 236 236 235 234 233 233 232 232 233 235 237 239 242 245 249 252 255 258 261 263 265 267 269 272 274 276 277 277 275 272 271 275 279 282 285 287
197 198 198 196 196 198 200 201 200 199 201 207 213 217 219 220 218 216 214 215 217 220 222 223 225 228 231 233 236 237 238 238 238 237 237 237 237 239 240 242 242 241 239 237 236 236 236 237 238 238 238 238 238 237 237 237 238 238 240 241 244 246 248 251 254 257 259 261 263 265 266 268 270 273 275 278 279 278 275 272 271 273 277 280 283 286
197 199 199 198 198 198 197 197 197 196 196 200 206 212 216 218 218 217 216 217 219 221 223 225 226 228 230 233 236 238 240 240 240 239 237 236 236 238 239 240 241 240 238 236 234 234 235 236 238 239 239 240 240 240 241 241 242 243 245 247 248 251 253 255 257 259 261 263 265 266 267 269 271 274 277 279 279 278 276 274 273 273 275 279 283 285
190 194 196 196 197 197 196 197 197 196 196 196 197 200 205 210 213 215 217 219 221 223 225 227 228 229 230 232 234 236 238 240 240 239 238 236 236 237 238 239 240 239 237 234 233 232 234 235 237 239 240 241 242 243 243 244 245 247 248 250 252 253 255 257 258 260 262 264 265 265 267 269 271 274 277 279 278 277 275 273 273 273 275 279 282 285
186 188 193 195 194 193 193 197 198 198 198 198 196 195 195 198 203 208 211 216 219 222 224 226 227 228 229 230 231 232 235 237 239 239 238 237 237 237 238 238 238 238 236 233 231 231 233 235 237 239 240 242 243 244 245 247 248 249 250 251 252 254 255 257 259 260 262 263 263 265 266 268 270 273 276 276 276 274 273 272 272 273 275 278 281 284
192 190 191 196 197 195 192 194 198 199 199 200 200 199 197 195 195 198 203 209 214 217 220 222 223 224 225 226 227 228 231 235 238 239 239 239 238 238 238 238 237 237 235 233 231 230 232 234 236 239 241 243 244 246 247 248 249 250 250 251 252 253 255 256 258 259 260 261 262 263 265 267 269 272 273 273 272 270 269 270 271 272 274 276 279 282
193 192 191 193 196 198 196 195 196 197 198 200 202 203 204 201 197 195 198 204 208 211 213 216 219 220 220 221 223 225 227 231 235 239 240 240 239 238 237 236 236 236 235 233 230 230 231 233 236 238 241 243 245 247 249 250 250 251 251 251 252 253 254 256 258 259 260 261 262 263 265 267 269 270 270 269 267 266 266 268 270 272 274 275 277 280
190 191 191 191 192 193 195 195 194 194 194 195 197 203 208 207 205 202 200 204 206 207 208 211 215 218 219 220 221 223 226 229 234 237 240 241 239 237 234 233 232 233 233 232 230 229 230 232 235 238 241 243 246 247 249 251 251 252 252 252 253 254 255 257 258 260 261 262 263 264 265 266 268 268 266 264 262 262 263 265 268 271 274 276 277 278
193 191 191 190 189 189 190 188 186 187 190 192 196 201 206 208 208 207 206 209 211 211 211 212 216 220 223 225 226 226 228 231 234 237 239 239 238 236 233 231 231 230 230 230 229 229 229 231 234 237 241 244 246 248 250 251 252 252 252 252 253 255 256 258 259 261 262 263 264 265 266 266 266 265 262 260 259 259 261 264 267 270 273 274 275 275
196 192 190 190 191 191 190 187 185 187 193 198 202 205 206 206 206 206 209 213 216 218 217 218 221 224 227 229 230 231 231 232 233 235 236 236 236 236 234 232 232 232 231 231 230 230 230 231 232 236 240 244 247 249 250 251 252 252 252 253 254 256 257 259 260 262 263 264 265 265 265 265 264 262 259 257 257 258 261 264 267 269 270 270 270 270
198 192 190 194 197 197 196 193 193 195 199 203 205 206 205 204 203 203 205 209 214 216 217 219 223 226 228 228 228 229 230 229 228 228 230 232 234 234 233 233 233 235 235 234 233 234 234 234 235 238 242 245 248 250 251 252 252 252 252 253 254 256 258 259 261 262 263 264 265 265 264 263 261 259 257 256 256 258 261 264 266 268 267 267 267 268
204 198 196 200 203 203 202 199 199 201 203 204 203 202 200 200 201 201 202 203 204 203 201 202 209 220 227 226 223 221 222 223 223 223 225 228 230 230 229 229 231 233 235 236 237 238 238 239 241 243 245 248 250 251 252 252 252 252 252 253 254 256 257 258 260 261 262 264 264 263 262 260 257 256 255 255 256 259 262 264 265 265 264 264 265 268
208 205 204 205 207 207 206 203 203 204 203 202 202 201 200 200 200 200 200 200 197 195 193 192 193 204 221 222 218 215 214 216 219 221 223 225 227 228 227 227 229 232 236 238 240 241 241 242 244 246 248 249 251 251 251 251 252 252 252 252 253 254 256 257 258 260 262 263 262 261 258 256 254 253 253 254 257 260 262 263 263 261 261 261 264 268
211 209 209 209 210 210 207 205 204 204 202 201 201 202 203 203 202 201 200 198 197 195 196 196 199 200 198 212 215 214 210 211 214 216 219 222 225 227 227 227 230 233 237 240 242 243 244 244 246 247 249 250 250 250 250 251 251 251 251 251 252 253 254 256 258 260 261 261 260 257 255 253 253 252 253 255 258 260 261 261 260 259 259 260 264 268
213 212 211 212 212 211 208 206 204 203 203 201 200 199 200 201 203 202 201 200 200 200 200 202 208 213 213 216 216 213 211 211 211 212 215 219 223 225 225 226 229 233 237 241 243 243 243 244 245 247 248 249 250 250 250 250 249 249 249 250 250 251 253 255 257 259 259 259 257 254 252 252 252 253 254 256 258 259 260 259 257 256 257 260 264 269
212 213 213 213 212 211 210 209 207 206 204 202 200 197 196 197 199 201 202 203 204 206 207 208 212 217 220 223 222 216 212 210 209 210 214 218 221 223 223 223 226 230 235 239 240 240 239 240 242 244 245 246 247 247 247 246 245 246 247 248 250 251 253 255 257 258 258 256 254 252 252 252 253 254 256 257 258 258 257 256 255 255 257 260 265 269
214 216 216 215 212 211 213 213 212 209 206 203 199 197 195 195 196 199 202 204 206 208 211 214 217 220 220 224 225 219 213 208 205 207 212 217 221 221 221 222 224 228 232 235 236 235 234 234 237 239 240 241 242 242 241 240 240 242 246 248 251 253 255 256 256 257 256 254 253 252 252 252 254 255 255 256 257 256 255 254 254 254 257 261 265 269
217 219 219 217 215 214 216 216 215 212 208 203 198 196 195 194 195 198 201 202 204 207 211 215 220 222 222 226 227 224 217 210 206 204 206 212 219 221 219 219 222 226 230 233 233 231 230 231 233 235 237 237 237 236 235 235 238 242 246 250 253 255 255 256 256 255 254 252 251 251 252 253 254 254 255 256 255 255 253 252 253 255 258 263 266 270
221 223 223 221 220 219 220 219 218 215 210 207 205 204 203 203 201 201 203 204 206 208 211 215 219 221 223 225 225 224 218 213 210 207 201 204 214 218 216 215 217 222 227 231 231 230 229 229 231 233 234 234 233 233 233 235 238 243 248 252 254 255 255 254 253 252 251 250 250 251 251 252 253 254 254 254 253 252 252 252 254 257 261 264 268 271
226 226 227 226 225 224 223 222 220 217 214 212 212 214 215 215 214 213 212 212 211 210 210 210 210 212 216 219 219 216 212 208 206 203 201 204 210 213 212 211 212 217 224 229 230 229 227 227 228 230 230 230 230 230 232 236 240 245 249 252 254 253 252 251 251 250 249 249 250 251 251 252 252 252 253 252 252 251 252 254 256 259 263 266 269 272
227 227 228 228 228 227 225 223 221 219 216 215 214 214 215 215 215 214 214 212 209 205 202 199 199 201 206 209 209 207 207 203 201 200 201 205 209 209 208 210 211 213 219 224 225 224 223 223 224 225 226 226 227 228 232 236 241 246 250 251 251 250 250 249 249 249 249 250 251 251 251 251 251 251 250 250 251 252 254 257 259 262 265 268 270 272
227 227 227 227 227 226 224 222 221 220 219 216 213 210 208 205 202 200 198 197 196 193 190 192 196 201 202 203 202 202 202 200 199 200 201 204 206 205 205 210 212 212 214 216 216 216 216 218 220 221 222 223 224 226 230 236 241 245 248 248 248 248 248 249 249 249 249 250 251 250 250 249 249 249 249 250 252 254 257 260 262 264 267 269 271 273
227 226 225 224 224 222 221 219 218 218 218 216 213 209 204 198 191 186 185 188 188 188 187 190 197 202 202 202 202 201 200 198 198 199 202 205 206 207 206 208 209 209 207 208 208 210 212 215 217 219 220 221 223 226 230 236 241 244 245 245 245 245 247 249 250 250 250 249 249 247 246 246 247 248 249 251 254 257 259 261 264 266 268 270 272 273
225 225 224 223 222 220 217 215 215 215 214 213 211 209 205 197 188 184 187 189 189 187 188 192 196 200 203 205 205 204 202 200 200 200 201 204 209 212 209 206 205 203 200 200 203 207 210 213 215 216 218 220 223 227 232 237 240 241 241 241 242 245 248 251 251 251 249 247 245 243 243 244 246 249 252 254 256 258 260 262 265 267 269 271 272 273
224 223 223 222 222 220 216 214 212 212 210 209 208 208 207 202 197 194 194 192 188 187 191 195 198 200 203 205 205 205 205 206 205 203 201 203 211 216 211 205 202 200 196 195 199 206 211 215 215 215 216 220 224 229 233 235 235 235 235 237 241 245 250 253 253 251 248 245 242 241 242 245 248 252 255 257 259 261 262 264 266 268 270 271 272 273
221 221 220 220 220 219 216 213 210 208 207 207 206 206 207 208 207 204 200 194 189 189 193 198 200 201 199 196 196 203 211 213 211 206 202 202 208 213 208 203 201 198 194 189 189 206 220 221 221 220 220 223 226 230 232 231 229 229 232 236 242 248 253 255 254 250 247 245 243 243 245 248 252 254 257 259 261 263 264 265 267 269 270 272 273 274
216 216 217 217 217 216 215 211 207 204 204 205 205 205 206 208 210 209 204 198 195 194 196 198 200 200 195 187 182 197 215 214 211 207 203 201 205 208 203 198 197 198 195 189 176 159 233 228 222 220 222 224 226 227 227 225 225 226 231 238 245 252 256 256 254 250 248 246 246 247 249 252 254 257 259 261 262 264 265 266 268 270 271 272 273 275
213 213 214 214 213 213 212 209 206 202 200 201 203 205 206 207 208 208 206 204 202 201 200 200 201 201 199 199 201 208 212 209 207 205 202 200 203 206 202 197 194 194 196 196 191 176 177 210 204 205 213 216 218 220 220 222 224 227 234 241 248 254 258 257 254 251 248 247 248 249 251 253 255 257 259 261 263 264 266 268 269 270 271 273 274 276
211 212 212 212 211 211 210 208 205 202 199 199 201 203 206 206 207 208 209 209 208 207 204 203 203 203 204 207 211 214 214 208 204 203 201 199 198 199 199 195 192 190 193 197 200 201 191 167 157 176 195 202 207 211 215 219 224 230 237 244 251 256 258 257 255 251 249 248 247 248 249 250 252 255 257 259 262 265 267 268 269 270 271 273 275 278
208 209 209 209 209 209 208 207 205 204 202 201 202 204 206 206 207 208 209 211 212 212 211 209 207 205 206 210 214 217 217 209 204 201 200 197 194 192 192 192 190 188 188 192 197 204 208 189 165 158 175 191 199 207 213 220 227 234 240 247 252 255 257 257 255 251 248 247 246 246 247 248 250 254 258 261 264 267 270 270 270 270 270 272 276 279
205 205 206 206 206 206 206 205 205 205 205 204 205 206 207 207 208 208 209 211 213 215 216 216 215 212 209 209 211 213 212 206 201 198 197 196 194 190 188 189 189 188 186 188 192 196 202 200 191 179 173 186 198 208 216 223 230 236 242 247 250 253 255 255 254 251 249 247 247 247 249 252 255 259 264 268 271 273 274 274 273 271 271 272 274 278
201 202 203 203 203 203 203 204 204 205 206 207 208 208 208 209 210 210 210 211 212 214 216 218 219 219 218 216 214 212 209 203 198 195 195 197 196 192 188 189 190 190 187 187 189 193 196 199 200 199 197 196 203 213 221 226 231 236 240 243 247 250 252 254 254 253 251 250 251 252 255 258 262 267 271 275 277 277 276 274 272 272 272 272 274 276
198 200 201 201 201 201 201 203 204 205 206 208 209 209 210 210 211 211 211 210 210 211 212 213 215 217 219 221 220 217 213 205 197 194 194 197 197 195 190 190 192 193 191 188 188 190 192 194 198 204 210 213 215 219 225 228 231 234 236 239 242 245 248 249 251 252 253 254 255 258 261 264 268 272 275 278 279 277 275 273 272 272 273 274 275 277
197 199 200 201 201 201 201 202 203 205 206 206 207 208 209 210 211 211 210 208 207 207 207 207 208 210 212 213 215 214 211 204 197 193 192 195 197 196 191 188 190 194 197 195 192 190 190 188 187 193 209 218 222 223 225 226 227 229 231 233 235 237 239 241 244 247 251 254 258 261 264 266 269 272 274 276 276 276 275 275 275 276 276 277 278 280
198 199 200 200 201 201 202 203 204 205 206 206 206 206 206 208 210 210 209 206 205 204 203 203 203 203 203 201 201 201 202 200 196 192 191 193 195 195 191 186 186 190 196 198 198 196 194 194 193 194 200 211 219 222 224 224 225 225 226 228 230 231 233 235 239 244 249 254 258 261 263 265 268 270 271 272 273 274 274 275 276 277 278 280 282 285
199 200 201 201 201 201 202 203 204 204 204 204 204 203 203 203 205 207 207 205 204 203 202 201 200 199 197 193 190 190 191 193 193 192 191 192 194 195 194 190 187 188 192 197 200 201 201 203 205 207 208 209 213 217 220 223 225 226 227 231 235 238 240 242 245 248 252 255 259 261 264 266 267 269 270 270 271 271 272 274 275 277 278 281 284 288
201 203 203 203 202 202 203 204 203 202 201 199 199 198 198 198 199 200 201 202 203 202 201 200 200 199 197 192 189 186 187 189 191 192 192 193 195 197 199 198 196 195 196 199 203 206 208 210 212 215 217 218 221 224 226 227 228 229 231 236 242 247 251 253 255 256 257 258 260 263 265 267 269 270 271 271 271 270 271 272 273 275 277 280 283 287
204 205 205 204 202 202 202 202 200 199 197 196 195 195 195 195 194 192 192 195 198 200 200 200 199 199 198 196 193 191 189 190 192 194 195 196 198 200 202 204 205 205 205 206 208 212 215 217 219 220 222 224 227 230 234 234 233 232 233 238 245 253 258 258 258 257 258 260 262 264 266 268 270 271 272 272 271 271 270 271 272 274 277 280 283 286
206 206 205 203 202 200 199 197 195 194 193 192 193 194 195 194 193 191 190 191 193 196 197 198 197 196 195 197 199 198 196 195 195 197 199 200 202 203 204 206 208 210 210 209 210 213 218 221 222 223 225 226 228 231 234 235 235 235 236 238 243 249 256 258 258 258 258 260 262 264 266 268 271 272 273 273 272 271 270 271 272 274 277 281 284 287
206 206 204 202 200 197 194 192 191 190 190 191 192 193 194 193 192 190 188 189 190 192 193 194 193 193 193 196 198 200 201 200 200 199 200 202 204 205 205 206 208 210 212 211 210 210 213 217 221 224 226 227 229 231 233 235 235 236 237 239 242 245 249 255 260 262 263 264 265 265 267 270 272 274 273 272 271 270 271 272 274 276 279 283 286 289
204 203 200 198 196 193 191 191 191 190 190 191 193 193 192 191 190 188 186 186 187 188 188 188 187 188 191 193 194 196 198 200 200 201 201 202 203 204 205 206 207 210 212 214 214 213 211 211 216 222 226 227 229 231 233 234 235 237 239 242 246 248 251 256 261 264 266 268 269 270 272 274 275 274 273 271 271 271 273 275 277 280 283 286 288 290
203 199 197 194 192 190 191 191 190 190 190 191 192 192 191 190 189 187 185 184 184 184 184 184 183 184 187 189 189 189 191 194 197 199 201 202 203 203 205 207 208 210 211 213 215 216 217 216 217 220 223 226 229 231 233 234 235 237 241 245 249 252 255 257 260 263 266 269 271 274 275 275 274 272 271 272 273 274 276 278 280 283 286 288 290 292
200 197 195 192 190 189 190 189 188 188 190 191 191 191 190 189 187 185 184 183 181 181 180 181 183 186 187 186 185 185 186 187 191 196 199 203 205 206 207 209 211 212 213 213 214 217 221 223 224 223 223 224 227 231 233 234 236 238 241 245 249 251 253 256 259 262 266 269 272 274 276 274 273 272 273 276 278 279 280 281 282 285 287 290 293 295
199 197 196 193 191 190 190 189 188 187 188 189 190 190 189 188 187 184 182 182 182 181 180 180 184 187 187 186 185 185 186 186 188 191 194 198 203 207 210 211 213 215 216 217 217 219 221 224 226 226 225 225 227 230 233 235 237 239 243 246 249 251 253 256 259 263 267 269 271 272 272 272 273 275 279 280 281 281 282 284 285 287 289 292 294 296
197 197 196 193 190 189 189 189 188 187 188 188 187 187 188 188 188 186 183 182 182 182 182 183 186 187 187 187 187 187 186 186 187 188 189 192 196 201 207 210 212 213 214 216 218 221 223 225 226 227 227 227 229 231 235 237 240 242 245 246 248 250 253 256 260 263 265 267 267 268 269 270 272 275 279 280 281 282 285 287 288 290 291 293 295 296
197 196 195 192 191 190 189 188 187 187 187 186 185 184 185 186 187 187 187 185 184 185 187 187 187 188 188 187 186 185 184 183 183 183 185 188 191 195 198 202 204 205 206 209 213 218 224 230 233 233 232 232 233 235 238 240 242 244 245 245 246 248 251 254 258 261 263 264 265 266 268 270 272 274 275 277 280 284 287 289 290 291 293 295 296 296
196 195 194 192 192 191 190 188 187 187 186 185 183 182 182 183 185 186 187 187 187 187 189 189 189 189 188 187 185 184 182 180 179 179 181 184 187 190 192 193 194 194 194 197 204 213 224 236 246 247 245 240 238 237 239 240 241 243 244 245 245 246 247 250 254 258 260 262 264 266 268 271 272 272 273 276 280 285 288 289 290 292 294 296 297 296